Phoenix-Mesa Gateway Airport, AZ

1:52 PM MST on November 21, 2019 (GMT -0700)
Phoenix-Mesa Gateway Airport

Weather History for KIWA - October, 2019

Change the Weather History Date:

Sunday, October 20, 2019

  Actual Average Record
Temperature  
Mean Temperature 66 °F -  
Max Temperature 82 °F 83 °F 102 °F (2003)
Min Temperature 50 °F 58 °F 50 °F (2006)
Cooling Degree Days 1    
Growing Degree Days 16 (Base 50)    
Moisture  
Dew Point 22 °F    
Average Humidity 21    
Maximum Humidity 35    
Minimum Humidity 10    
Precipitation  
Precipitation 0.00 in - - ()
Sea Level Pressure  
Sea Level Pressure 29.86 in    
Wind  
Wind Speed 8 mph ()    
Max Wind Speed 12 mph    
Max Gust Speed 17 mph    
Visibility 10.0 miles    
Events      
Averages and records for this station are not official NWS values.
T = Trace of Precipitation, MM = Missing Value Source: Averaged Metar Reports

Daily Weather History Graph

Daily Weather History Graph

Search for Another Location

Airport or City:

Astronomy

Oct. 20, 2019 Rise Set
Actual Time 6:34 AM MST 5:47 PM MST
Civil Twilight 6:09 AM MST 6:12 PM MST
Nautical Twilight 5:40 AM MST 6:41 PM MST
Astronomical Twilight 5:12 AM MST 7:10 PM MST
Moon 11:11 PM MST (10/20) 12:54 PM MST (10/20)
Length of Visible Light 12h 02m
Length of Day
11h 12m
Waning Gibbous, 58% of the Moon is Illuminated
Oct 20
Waning Gibbous
Oct 21
Last Quarter
Oct 27
New
Nov 4
First Quarter
Nov 12
Full

Hourly Weather History & Observations

Time (MST) Temp. Dew Point Humidity Pressure Visibility Wind Dir Wind Speed Gust Speed Precip Events Conditions
12:15 AM 57.0 °F 18.1 °F 22% 29.83 in 10.0 mi ESE 9.2 mph - N/A   Clear
12:35 AM 56.7 °F 18.5 °F 23% 29.84 in 10.0 mi ESE 8.1 mph - N/A   Clear
12:55 AM 56.1 °F 23.2 °F 28% 29.84 in 10.0 mi ESE 8.1 mph - N/A   Clear
1:15 AM 57.0 °F 21.6 °F 25% 29.83 in 10.0 mi ESE 10.4 mph - N/A   Clear
1:35 AM 56.7 °F 19.4 °F 23% 29.83 in 10.0 mi ESE 10.4 mph - N/A   Clear
1:55 AM 58.3 °F 21.2 °F 24% 29.83 in 10.0 mi SE 10.4 mph - N/A   Clear
2:15 AM 57.9 °F 21.2 °F 24% 29.82 in 10.0 mi SE 11.5 mph - N/A   Clear
2:35 AM 57.4 °F 21.0 °F 24% 29.82 in 10.0 mi SE 8.1 mph - N/A   Clear
2:55 AM 56.7 °F 20.7 °F 25% 29.82 in 10.0 mi ESE 9.2 mph - N/A   Clear
3:15 AM 56.5 °F 20.3 °F 24% 29.82 in 10.0 mi East 9.2 mph - N/A   Clear
3:35 AM 54.3 °F 18.0 °F 24% 29.82 in 10.0 mi East 9.2 mph - N/A   Clear
3:55 AM 55.0 °F 17.8 °F 23% 29.82 in 10.0 mi ESE 10.4 mph - N/A   Clear
4:35 AM 53.2 °F 19.4 °F 27% 29.83 in 10.0 mi ESE 8.1 mph - N/A   Clear
4:50 AM 53.6 °F 17.6 °F 24% 29.83 in 10.0 mi ESE 6.9 mph - N/A   Clear
5:50 AM 51.8 °F 19.4 °F 28% 29.85 in 10.0 mi ESE 5.8 mph - N/A   Clear
6:50 AM 50.0 °F 23.0 °F 35% 29.85 in 10.0 mi SSE 10.4 mph - N/A   Clear
7:50 AM 55.4 °F 23.0 °F 29% 29.89 in 10.0 mi ESE 5.8 mph - N/A   Clear
8:50 AM 64.4 °F 24.8 °F 22% 29.92 in 10.0 mi SSE 4.6 mph - N/A   Clear
9:55 AM 71.6 °F 24.8 °F 17% 29.93 in 10.0 mi South 4.6 mph - N/A   Clear
10:50 AM 75.2 °F 24.8 °F 15% 29.92 in 10.0 mi West 6.9 mph - N/A   Clear
12:50 PM 77.0 °F 24.8 °F 14% 29.90 in 10.0 mi WSW 6.9 mph - N/A   Clear
1:50 PM 82.4 °F 21.2 °F 10% 29.87 in 10.0 mi WNW 6.9 mph - N/A   Clear
2:50 PM 82.4 °F 23.0 °F 11% 29.86 in 10.0 mi WNW 9.2 mph 17.3 mph N/A   Clear
4:50 PM 82.4 °F 23.0 °F 11% 29.84 in 10.0 mi West 10.4 mph - N/A   Clear
5:50 PM 78.8 °F 23.0 °F 13% 29.85 in 10.0 mi WSW 6.9 mph - N/A   Clear
6:50 PM 75.2 °F 24.8 °F 15% 29.85 in 10.0 mi West 8.1 mph - N/A   Clear
7:50 PM 71.6 °F 24.8 °F 17% 29.87 in 10.0 mi SSW 4.6 mph - N/A   Clear
8:50 PM 68.0 °F 23.0 °F 18% 29.89 in 10.0 mi East 5.8 mph - N/A   Clear
9:50 PM 62.6 °F 23.0 °F 22% 29.91 in 10.0 mi ESE 6.9 mph - N/A   Clear
10:50 PM 59.0 °F 23.0 °F 25% 29.93 in 10.0 mi ESE 6.9 mph - N/A   Clear